Precipitable_Water
0.96 0.97 0.97 0.99 0.97 0.96 0.98 1.00 1.00 0.99 0.97 0.91 0.88 0.85 0.82 0.80 0.80 0.81 0.81 0.82 0.82 0.79
0.96 0.95 0.93 0.98 1.01 0.94 0.95 0.95 0.95 0.93 0.89 0.87 0.84 0.81 0.79 0.77 0.76 0.80 0.82 0.84 0.83 0.78
1.01 1.02 1.03 0.99 0.92 0.93 0.96 0.93 0.90 0.88 0.85 0.83 0.80 0.78 0.76 0.74 0.75 0.76 0.79 0.82 0.80 0.79
0.95 0.97 0.99 0.90 0.90 0.92 0.93 0.88 0.86 0.84 0.81 0.77 0.74 0.73 0.72 0.72 0.71 0.70 0.72 0.78 0.76 0.75
0.89 0.87 0.85 0.81 0.84 0.88 0.86 0.84 0.80 0.78 0.74 0.71 0.72 0.73 0.71 0.70 0.70 0.69 0.69 0.72 0.73 0.72
0.72 0.72 0.74 0.75 0.77 0.76 0.75 0.74 0.74 0.74 0.73 0.70 0.72 0.73 0.73 0.71 0.70 0.71 0.71 0.71 0.70 0.71
0.66 0.67 0.68 0.69 0.69 0.70 0.69 0.66 0.67 0.68 0.69 0.69 0.69 0.70 0.70 0.71 0.71 0.71 0.71 0.72 0.71 0.72
0.68 0.69 0.69 0.69 0.69 0.69 0.68 0.67 0.67 0.66 0.66 0.66 0.66 0.68 0.68 0.69 0.69 0.69 0.69 0.71 0.71 0.71
0.68 0.69 0.69 0.70 0.69 0.69 0.67 0.67 0.67 0.66 0.65 0.64 0.65 0.67 0.67 0.68 0.67 0.68 0.67 0.68 0.70 0.72
0.70 0.70 0.70 0.70 0.68 0.66 0.66 0.66 0.65 0.65 0.65 0.64 0.65 0.67 0.67 0.69 0.68 0.68 0.68 0.68 0.67 0.66
0.72 0.71 0.71 0.70 0.68 0.67 0.67 0.66 0.66 0.67 0.67 0.65 0.66 0.67 0.68 0.70 0.70 0.69 0.69 0.68 0.66 0.61
0.73 0.73 0.73 0.72 0.71 0.70 0.68 0.66 0.65 0.67 0.68 0.66 0.67 0.68 0.70 0.69 0.69 0.67 0.61 0.54 0.47 0.37
0.75 0.74 0.74 0.74 0.73 0.72 0.69 0.66 0.65 0.66 0.68 0.70 0.67 0.71 0.70 0.68 0.63 0.50 0.40 0.35 0.33 0.33
0.75 0.75 0.74 0.74 0.73 0.71 0.68 0.66 0.65 0.65 0.67 0.70 0.71 0.72 0.70 0.59 0.45 0.34 0.29 0.26 0.26 0.29
Wind_Speed
34 33 33 32 32 33 34 35 34 34 34 34 35 35 35 35 35 36 35 35 34 34
34 33 33 35 36 33 32 33 34 35 35 35 35 35 35 35 35 35 35 35 34 34
32 33 32 33 32 32 32 34 34 33 34 35 35 35 35 36 35 35 35 34 33 33
31 30 30 30 31 33 33 33 34 35 36 36 36 35 35 35 35 34 34 34 33 33
32 31 31 31 31 32 33 34 34 34 34 34 34 34 35 35 35 34 34 33 33 32
28 29 30 30 31 31 32 33 33 33 33 33 33 34 34 34 34 33 32 32 32 32
25 26 27 28 29 29 30 31 31 31 32 32 33 33 33 33 33 32 32 32 31 31
24 25 25 26 27 28 28 29 30 31 32 32 32 32 33 32 32 32 31 30 29 28
24 24 25 25 26 27 28 29 29 29 30 30 30 30 31 30 30 28 27 25 24 24
23 23 23 23 23 23 24 25 26 27 28 28 28 28 28 28 28 27 26 24 23 22
23 23 22 21 22 23 24 25 26 27 27 27 27 26 26 25 24 23 23 22 21 20
25 25 25 25 25 25 25 24 25 25 25 25 25 24 22 21 20 20 19 19 18 17
26 26 26 26 26 26 25 26 25 24 24 23 22 21 19 18 18 17 16 15 15 14
25 26 26 26 27 27 27 26 25 24 23 22 20 20 19 17 15 15 14 14 14 15
Wind_Direction
247 250 253 256 259 262 265 267 268 270 272 274 277 278 279 280 280 279 279 279 280 281
250 252 254 258 262 264 264 267 269 271 273 275 277 278 279 279 280 279 278 278 278 280
250 251 254 259 258 261 268 268 270 272 274 275 277 278 278 279 279 279 278 277 277 278
249 253 257 257 259 262 267 270 271 274 274 275 277 277 278 278 278 278 278 276 276 276
250 252 255 260 263 265 268 271 273 275 275 275 276 277 277 278 278 277 276 275 275 275
249 253 257 260 264 267 270 273 274 275 276 276 277 277 277 277 277 276 276 276 276 275
252 256 260 263 266 269 272 274 274 275 275 277 278 278 278 277 275 275 276 276 275 274
254 258 261 264 266 270 272 274 276 277 278 278 278 278 278 276 275 274 274 273 274 274
256 259 263 266 269 272 274 276 277 278 279 280 280 279 278 275 273 273 271 270 270 271
256 260 263 266 270 273 277 278 279 280 280 280 280 279 279 274 272 268 267 266 267 269
256 259 262 267 271 276 280 281 281 281 281 280 281 280 279 273 269 265 263 262 264 264
257 260 262 267 272 277 279 282 284 284 282 280 280 277 275 271 266 263 260 259 258 254
258 260 263 267 271 275 277 280 282 282 281 279 278 274 269 265 262 259 254 250 249 247
259 261 266 268 271 274 275 277 278 279 278 277 273 271 260 259 256 252 247 247 247 246